Temperature
5 7 6 6 6 7 7 7 7 7 6 5 5 5 4 3 3 2 2 2 1 1 1 2 3 4 4 5 5 6 6 7 7 7 8 8 8 8 9 9 9 9 10 10
6 6 5 5 5 6 6 6 7 6 5 5 4 4 4 3 2 2 1 1 1 1 1 2 2 3 3 4 4 5 6 6 6 7 7 7 7 8 8 9 9 9 9 9
6 5 5 5 5 5 5 6 6 5 4 4 4 5 4 3 2 1 1 0 0 0 0 1 1 2 2 3 3 4 5 5 6 6 6 6 7 7 7 8 8 8 8 8
4 4 4 4 4 4 5 5 5 4 4 5 4 5 5 3 2 1 1 0 -0 -0 -0 -0 0 1 2 2 3 3 4 5 5 5 5 6 6 6 7 7 7 8 8 8
4 3 3 4 4 3 4 4 4 4 4 4 4 4 5 2 2 2 1 -0 -1 -1 -1 -1 -0 0 1 1 2 3 3 4 4 5 5 5 5 6 6 6 7 7 7 7
3 2 2 3 3 3 3 3 3 3 4 3 3 4 5 3 2 2 1 -0 -1 -1 -1 -1 -1 -0 0 1 1 2 3 3 4 4 4 4 5 5 5 6 6 6 6 7
3 2 2 2 2 3 3 4 4 4 4 4 3 3 3 1 1 1 -0 -1 -1 -2 -2 -1 -1 -1 -0 0 1 1 2 3 3 3 4 4 4 4 5 5 5 5 6 6
2 3 1 1 1 2 2 3 3 4 4 5 3 3 3 0 -1 -1 -1 -2 -2 -2 -2 -2 -2 -1 -1 -0 0 0 1 2 2 3 3 3 3 4 4 4 4 5 5 5
2 2 1 0 0 1 2 2 1 2 2 2 3 2 1 -0 -1 -1 -2 -2 -3 -3 -3 -3 -2 -2 -2 -1 -1 -0 -0 1 1 2 2 3 3 3 3 4 4 4 4 5
0 0 1 0 1 0 1 1 1 2 2 3 3 2 2 -1 -1 -1 -2 -2 -3 -3 -3 -3 -3 -2 -2 -2 -1 -1 -1 -0 0 1 2 2 3 3 3 3 4 4 4 4
-1 -1 0 0 -1 -0 -1 -0 0 1 1 2 3 2 0 -1 -1 -1 -2 -3 -4 -4 -4 -4 -3 -3 -2 -2 -2 -1 -1 -1 -0 0 1 1 2 2 2 3 3 3 3 4
-1 -1 -0 -0 -1 -2 -1 -1 -1 0 0 0 1 1 -1 -2 -2 -3 -3 -4 -4 -5 -4 -4 -4 -3 -3 -3 -2 -2 -2 -2 -1 -1 0 1 1 1 2 2 3 3 3 3
-2 -2 -0 1 -1 -2 -2 -3 -3 -3 -1 -0 0 1 -1 -2 -3 -3 -4 -4 -5 -5 -5 -5 -4 -4 -4 -3 -3 -3 -3 -2 -2 -1 -1 -0 0 1 1 2 2 2 3 3
-2 -3 -1 0 -0 -2 -3 -3 -4 -3 -2 -1 -1 -1 -2 -2 -3 -3 -4 -5 -5 -5 -6 -5 -5 -5 -5 -4 -4 -3 -3 -3 -2 -2 -2 -1 -1 -0 0 1 1 2 2 2
-2 -3 -3 -3 -3 -3 -3 -4 -4 -4 -3 -2 -2 -2 -3 -3 -4 -4 -5 -5 -6 -6 -6 -6 -6 -6 -5 -5 -5 -4 -4 -3 -3 -3 -2 -2 -1 -1 -1 -0 1 1 2 2
-3 -3 -4 -4 -4 -4 -4 -4 -4 -4 -4 -4 -3 -3 -3 -5 -5 -5 -6 -6 -6 -7 -7 -7 -6 -6 -6 -6 -5 -5 -5 -4 -4 -3 -3 -3 -2 -2 -1 -1 -0 0 1 1
-4 -4 -4 -2 -4 -4 -3 -4 -5 -5 -5 -5 -4 -4 -5 -5 -6 -6 -7 -7 -7 -7 -7 -7 -7 -7 -7 -6 -6 -6 -5 -5 -4 -4 -4 -3 -3 -2 -2 -2 -1 -0 0 0
-5 -5 -4 -3 -4 -4 -3 -6 -5 -6 -6 -6 -6 -6 -6 -7 -7 -8 -8 -8 -8 -8 -8 -8 -8 -7 -7 -7 -6 -6 -6 -5 -5 -5 -4 -4 -4 -3 -3 -2 -2 -1 -1 -0
-5 -5 -4 -4 -3 -3 -4 -6 -6 -6 -6 -6 -7 -7 -7 -8 -7 -7 -8 -8 -9 -9 -9 -8 -8 -8 -8 -7 -7 -7 -6 -6 -6 -5 -5 -5 -4 -4 -3 -3 -2 -2 -1 -1
-6 -6 -4 -5 -4 -3 -3 -6 -8 -6 -5 -6 -8 -8 -8 -8 -6 -6 -8 -9 -9 -9 -9 -8 -8 -8 -8 -8 -7 -7 -7 -7 -6 -6 -5 -5 -5 -4 -4 -3 -3 -2 -2 -1
-6 -6 -6 -5 -4 -4 -5 -8 -7 -5 -5 -7 -8 -8 -9 -8 -8 -9 -9 -9 -9 -9 -9 -9 -8 -8 -8 -8 -8 -8 -8 -7 -7 -6 -6 -5 -5 -5 -4 -4 -3 -3 -2 -2
-6 -6 -6 -6 -5 -5 -7 -8 -7 -6 -8 -8 -9 -9 -9 -10 -10 -10 -10 -10 -9 -9 -9 -9 -9 -9 -9 -9 -8 -8 -8 -8 -7 -7 -6 -6 -5 -5 -4 -4 -4 -4 -3 -3
-7 -6 -6 -6 -5 -7 -8 -8 -8 -8 -9 -9 -9 -9 -10 -10 -10 -10 -10 -10 -10 -10 -10 -10 -9 -9 -9 -9 -9 -9 -8 -8 -8 -7 -7 -6 -6 -5 -5 -5 -4 -4 -4 -3
-8 -9 -8 -8 -7 -8 -9 -9 -9 -9 -9 -9 -9 -10 -10 -10 -10 -10 -10 -10 -10 -10 -10 -10 -10 -10 -9 -9 -9 -9 -9 -9 -8 -8 -7 -7 -6 -6 -5 -5 -5 -5 -4 -4
-7 -9 -9 -8 -8 -9 -9 -9 -9 -9 -10 -10 -10 -10 -10 -10 -10 -11 -11 -10 -10 -10 -10 -10 -10 -10 -10 -10 -10 -9 -9 -9 -9 -8 -8 -7 -7 -6 -6 -6 -5 -5 -5 -5
-9 -9 -8 -7 -8 -9 -8 -9 -9 -10 -10 -10 -10 -10 -10 -11 -11 -11 -11 -11 -11 -11 -10 -10 -10 -10 -10 -10 -10 -10 -10 -10 -9 -9 -8 -8 -8 -7 -7 -6 -6 -6 -5 -5
Wind_Speed
1 1 2 3 5 6 6 8 9 5 1 2 5 4 3 2 2 3 3 4 5 6 6 6 7 7 7 7 6 5 4 4 3 2 1 0 1 1 1 1 1 2 3 4
2 2 4 3 3 5 7 8 8 4 1 3 4 5 3 1 1 2 3 4 5 6 8 8 8 8 7 7 7 6 5 5 3 1 1 1 2 1 1 0 1 1 2 3
2 1 2 2 2 4 6 8 8 6 3 2 4 6 4 1 1 3 4 4 5 6 7 8 8 8 7 7 7 5 5 5 4 3 2 1 1 1 1 1 1 2 2 2
1 2 1 1 3 5 7 6 7 7 5 4 4 5 5 3 2 3 4 5 5 6 7 7 8 8 8 7 7 6 6 5 4 2 1 0 1 1 2 2 2 2 3 3
1 2 1 2 4 5 5 6 6 7 7 6 5 6 4 2 4 4 4 4 5 6 7 7 7 7 7 7 7 7 6 6 5 3 2 1 2 2 2 2 2 2 3 3
1 1 2 3 4 3 3 3 3 4 4 6 6 7 5 2 4 5 4 4 5 7 7 7 7 7 6 7 7 7 6 6 5 4 3 2 3 3 2 2 2 2 3 3
2 0 2 3 3 1 1 2 2 3 4 5 4 6 5 1 2 3 4 5 6 6 7 8 8 8 7 8 8 8 8 7 7 5 4 3 3 3 4 3 3 3 3 3
3 2 2 3 2 2 2 3 3 4 5 4 4 6 2 1 1 2 3 5 6 7 7 8 8 7 7 7 7 7 8 7 8 6 5 5 3 3 3 4 3 4 4 4
3 3 2 3 3 2 1 3 3 3 4 5 5 4 2 1 2 3 5 6 7 8 8 8 8 7 7 7 7 7 7 7 7 7 6 5 4 4 4 4 4 3 3 4
2 4 3 3 1 2 2 1 2 3 4 6 5 5 3 2 4 5 5 6 7 8 9 9 8 8 8 7 7 7 7 7 7 7 6 5 5 5 5 4 4 4 4 4
1 3 2 1 1 2 0 1 2 3 4 5 5 3 1 2 3 5 5 6 7 8 8 8 8 8 8 8 7 7 7 8 7 8 7 6 5 5 5 4 5 4 4 4
1 2 3 3 0 2 0 1 3 4 4 5 5 4 2 3 4 4 5 7 8 8 8 8 8 8 8 8 8 8 8 8 8 8 7 7 6 5 5 5 5 5 5 4
1 1 3 2 2 1 0 1 3 3 3 5 6 5 2 4 5 5 6 8 8 9 9 8 8 8 9 9 8 8 8 8 9 8 8 7 6 6 6 6 6 5 5 5
1 2 4 5 5 2 3 3 3 4 4 6 9 10 8 9 9 9 9 8 8 8 9 9 9 9 9 9 9 9 9 9 9 8 8 8 7 7 7 7 6 6 5 5
1 3 3 5 6 4 6 6 5 7 8 7 9 10 11 11 10 9 8 8 9 9 10 10 9 10 10 10 10 10 10 9 9 9 9 8 8 8 7 7 6 6 6 6
1 2 2 4 4 4 6 7 7 8 9 10 11 12 9 9 7 7 8 8 9 10 10 10 10 10 11 10 10 11 10 10 10 9 9 9 8 8 8 7 6 6 6 6
2 2 3 4 3 4 6 6 6 4 5 7 9 8 7 8 8 8 8 8 9 10 11 11 11 10 10 10 10 11 11 10 9 9 9 9 8 8 8 7 7 6 6 6
3 3 2 3 2 5 1 1 2 4 5 6 7 7 7 8 8 7 6 8 9 10 11 11 11 11 11 10 10 11 10 10 9 9 9 9 8 8 8 7 7 7 6 6
2 3 2 2 3 5 3 2 2 4 5 4 6 7 7 7 6 4 5 7 9 10 11 11 10 11 10 10 10 10 10 9 9 9 9 9 9 9 9 8 8 7 6 6
1 1 3 3 4 4 2 1 1 2 4 1 3 5 6 6 5 6 8 10 11 11 10 10 10 10 10 10 10 10 10 10 9 10 10 10 9 9 9 8 8 6 6 6
1 2 3 5 5 5 2 0 3 3 3 1 3 5 5 4 6 8 10 10 10 10 11 10 10 9 10 10 10 10 10 10 11 10 10 9 9 9 9 8 7 6 6 6
3 3 4 3 4 5 2 3 4 3 2 2 4 4 5 6 7 8 9 10 10 10 11 11 10 10 10 10 9 10 10 11 11 10 10 9 9 8 7 7 6 5 5 5
5 4 3 5 4 1 3 3 2 2 3 4 4 5 5 6 7 9 9 10 10 10 10 10 10 11 10 10 9 10 11 11 11 10 9 9 9 8 7 6 5 4 4 4
3 2 3 5 6 5 4 4 3 3 4 5 5 5 5 6 8 9 9 9 10 10 10 9 10 10 11 11 10 10 11 11 10 10 9 8 8 7 6 5 4 4 4 4
3 4 4 5 5 5 5 5 5 5 5 5 5 5 6 6 8 8 8 9 9 9 9 9 9 10 11 11 11 11 11 10 10 9 8 8 7 7 6 5 5 4 4 5
4 5 5 5 4 4 5 4 4 5 5 5 6 6 6 6 7 8 8 8 9 9 9 9 9 10 11 11 11 11 10 10 9 8 8 7 6 6 5 5 5 6 5 6
Wind_Direction
89 144 225 243 242 253 253 249 254 254 302 255 232 255 289 330 352 352 359 360 1 357 354 359 2 5 6 6 4 360 358 2 12 22 10 341 327 284 181 153 209 201 194 191
165 233 265 273 256 258 253 258 261 261 269 268 254 259 270 3 17 7 2 355 354 353 355 359 3 8 5 1 0 356 355 353 351 356 338 283 274 256 250 191 231 227 228 209
196 275 287 252 259 262 250 250 261 269 291 242 266 253 220 230 350 5 6 359 356 354 349 352 355 358 358 358 356 351 348 347 345 355 15 14 0 322 291 236 243 245 233 235
291 300 297 270 277 268 260 259 263 260 252 254 239 258 229 235 279 335 345 351 351 350 346 349 350 350 352 353 354 351 349 351 349 357 3 60 279 275 284 263 237 245 230 230
296 334 311 282 283 268 268 286 258 246 240 252 237 248 247 201 267 290 309 326 337 343 345 344 344 340 344 351 356 355 354 358 355 350 324 276 272 282 292 292 248 235 230 228
298 338 324 302 305 285 299 273 222 216 231 244 234 234 254 215 255 273 289 315 334 340 341 343 346 342 344 353 359 358 358 0 356 349 329 288 278 292 287 296 274 257 244 232
312 310 17 347 316 327 323 257 243 227 229 246 215 230 246 223 260 269 298 319 330 337 340 342 346 346 348 351 356 355 355 356 352 346 336 315 294 287 265 271 260 262 253 245
310 290 12 4 332 280 241 239 245 253 250 256 219 234 235 84 288 310 327 334 341 343 343 342 343 342 343 345 351 350 346 347 346 339 332 328 315 294 283 283 269 257 261 258
321 300 358 358 354 321 237 226 269 269 271 260 239 245 270 325 319 331 336 342 341 340 339 341 343 343 340 340 342 341 339 338 339 334 327 323 323 310 292 289 278 263 268 276
305 287 315 325 297 29 336 230 219 241 261 258 254 247 272 301 310 322 328 329 332 336 338 341 342 341 339 338 335 337 337 333 333 331 325 319 318 317 305 291 282 270 267 269
297 268 302 313 325 318 36 207 244 240 260 260 260 263 5 288 295 306 316 327 329 331 332 336 338 339 338 338 336 337 337 335 334 330 324 321 319 318 308 297 286 272 270 264
302 270 272 265 23 4 218 246 234 246 248 244 259 268 53 329 320 316 320 328 330 331 332 335 340 342 343 340 337 336 334 333 330 327 322 317 315 318 312 301 291 281 269 263
181 239 286 245 182 101 248 254 242 246 250 245 245 257 39 346 334 325 322 328 331 333 336 339 343 344 342 339 335 333 331 330 329 326 322 318 316 315 308 302 289 283 275 263
170 223 247 272 304 290 265 267 235 220 236 248 248 267 295 314 318 324 326 329 332 336 338 340 340 339 338 336 333 332 329 329 326 323 317 315 313 310 304 301 291 280 274 260
241 243 243 264 279 270 272 274 247 227 243 252 265 272 290 306 309 315 322 328 333 337 339 338 335 334 334 333 333 331 328 328 324 320 316 310 311 309 304 299 292 280 270 262
253 241 242 259 256 271 282 280 261 249 252 254 267 278 296 310 314 320 326 329 331 332 333 332 330 330 329 329 329 327 324 323 321 316 312 309 309 307 306 300 290 279 270 263
209 211 243 256 281 283 272 263 235 233 240 249 259 278 312 314 316 320 323 325 326 327 328 328 327 324 323 323 323 321 319 318 316 314 310 310 309 303 301 297 287 277 266 257
205 218 239 277 280 250 256 63 230 238 267 257 263 285 300 303 308 308 315 324 324 326 326 325 323 322 322 321 320 318 317 315 313 313 313 311 310 304 302 293 287 280 271 257
215 207 222 243 260 269 266 224 223 242 278 261 263 287 306 316 309 311 338 336 326 321 319 319 319 318 319 321 320 318 318 316 314 315 313 311 307 301 299 291 286 277 269 261
86 195 220 230 252 260 306 106 227 222 272 234 262 289 310 319 304 320 338 330 325 325 323 321 321 320 320 322 321 318 319 318 315 313 309 307 303 298 293 288 284 274 266 262
171 195 222 236 247 268 321 186 177 227 308 336 278 286 296 293 292 309 318 321 322 324 324 325 323 322 321 321 321 319 318 316 313 309 306 305 303 299 291 287 279 270 268 265
200 197 206 210 228 259 128 158 206 274 342 302 290 290 288 292 299 308 316 320 323 325 327 327 325 322 322 323 323 318 317 316 313 311 310 309 307 302 293 289 278 270 266 266
217 218 218 213 235 345 177 215 255 299 281 288 291 292 289 294 301 310 315 317 319 321 323 324 322 320 323 326 323 317 317 318 316 314 312 310 309 305 300 294 277 274 268 262
221 224 228 251 261 265 249 251 267 276 278 287 289 289 288 289 297 305 309 313 318 320 321 322 322 322 324 326 325 319 317 318 314 313 313 312 312 310 309 305 289 273 266 260
222 188 223 250 273 287 250 246 266 282 285 289 292 288 284 288 294 300 305 310 315 317 318 319 319 319 320 322 323 324 323 321 317 315 314 314 314 313 312 311 301 289 282 273
198 199 211 245 249 248 272 266 269 274 280 283 287 291 291 289 292 299 303 307 311 313 315 316 318 318 319 321 322 324 325 323 319 318 320 319 318 317 316 316 315 313 301 305
Height
1519 1519 1517 1517 1518 1516 1514 1512 1512 1514 1519 1520 1517 1518 1520 1522 1521 1520 1519 1518 1516 1515 1515 1513 1511 1510 1509 1508 1508 1508 1508 1508 1509 1510 1511 1512 1513 1515 1517 1518 1520 1522 1524 1526
1518 1518 1520 1521 1520 1518 1516 1514 1512 1516 1520 1519 1518 1517 1519 1520 1520 1520 1519 1518 1517 1515 1513 1511 1510 1508 1507 1506 1506 1506 1505 1506 1507 1507 1508 1510 1511 1512 1514 1516 1517 1519 1521 1523
1517 1520 1522 1521 1519 1518 1515 1515 1514 1516 1519 1519 1518 1512 1515 1519 1520 1520 1520 1518 1517 1515 1513 1510 1508 1507 1506 1505 1504 1504 1504 1504 1505 1506 1507 1508 1510 1511 1512 1512 1514 1516 1518 1519
1521 1523 1522 1520 1519 1518 1513 1515 1516 1517 1516 1512 1515 1506 1508 1515 1517 1518 1518 1517 1516 1514 1512 1510 1507 1506 1504 1504 1503 1502 1502 1502 1503 1503 1504 1506 1507 1508 1509 1510 1511 1513 1514 1516
1522 1523 1522 1520 1520 1520 1516 1518 1517 1516 1514 1514 1513 1511 1504 1514 1515 1516 1517 1517 1515 1514 1512 1509 1507 1505 1504 1503 1502 1501 1501 1501 1501 1501 1503 1504 1505 1506 1506 1507 1508 1510 1511 1513
1525 1526 1525 1523 1522 1522 1520 1518 1516 1516 1513 1511 1511 1511 1501 1510 1514 1514 1516 1515 1514 1513 1511 1509 1507 1506 1504 1502 1501 1500 1499 1499 1499 1499 1501 1502 1502 1503 1504 1504 1505 1506 1508 1509
1523 1525 1526 1526 1522 1521 1520 1515 1507 1505 1505 1500 1509 1510 1505 1513 1515 1516 1515 1515 1513 1511 1509 1507 1505 1504 1502 1500 1499 1497 1497 1496 1496 1497 1498 1498 1499 1500 1501 1501 1502 1503 1504 1505
1523 1520 1527 1527 1526 1523 1522 1519 1513 1506 1499 1497 1508 1505 1507 1516 1517 1516 1515 1514 1513 1511 1509 1506 1504 1502 1500 1499 1497 1496 1496 1494 1494 1494 1495 1495 1496 1497 1498 1498 1499 1500 1500 1501
1527 1524 1529 1529 1529 1527 1522 1520 1523 1519 1514 1511 1502 1507 1512 1515 1515 1515 1514 1513 1511 1510 1508 1506 1503 1501 1499 1497 1496 1495 1494 1493 1492 1492 1492 1493 1493 1494 1494 1495 1495 1496 1497 1498
1535 1531 1529 1530 1529 1529 1528 1525 1523 1518 1512 1501 1496 1502 1504 1513 1513 1513 1513 1512 1510 1509 1506 1504 1502 1500 1498 1496 1495 1494 1492 1491 1490 1490 1489 1490 1490 1490 1491 1491 1491 1492 1493 1494
1537 1534 1529 1529 1530 1528 1530 1529 1525 1521 1519 1508 1499 1502 1511 1513 1514 1513 1513 1512 1510 1508 1505 1503 1500 1498 1496 1494 1493 1491 1490 1489 1487 1486 1486 1486 1486 1486 1487 1487 1488 1489 1490 1490
1538 1535 1529 1529 1533 1533 1532 1531 1529 1522 1520 1518 1509 1511 1515 1516 1515 1514 1513 1512 1510 1507 1505 1502 1499 1497 1495 1493 1491 1489 1488 1486 1485 1483 1483 1483 1482 1482 1483 1483 1484 1485 1486 1486
1539 1537 1528 1520 1530 1535 1534 1535 1535 1532 1525 1518 1512 1510 1515 1516 1515 1514 1513 1511 1508 1506 1503 1500 1498 1495 1493 1491 1489 1487 1485 1483 1482 1481 1480 1479 1479 1479 1479 1479 1480 1480 1481 1482
1538 1538 1533 1525 1523 1530 1533 1534 1535 1532 1524 1517 1515 1511 1514 1515 1514 1513 1512 1510 1507 1504 1502 1499 1496 1494 1492 1490 1487 1485 1483 1481 1479 1478 1477 1476 1475 1475 1475 1475 1475 1476 1477 1478
1538 1536 1537 1535 1533 1534 1533 1532 1532 1532 1526 1521 1514 1515 1515 1516 1516 1514 1512 1509 1506 1503 1501 1498 1495 1493 1490 1487 1485 1482 1480 1478 1477 1475 1474 1473 1472 1471 1471 1470 1470 1471 1472 1473
1539 1538 1537 1535 1533 1533 1532 1529 1529 1529 1527 1523 1520 1517 1517 1518 1516 1513 1511 1508 1506 1503 1500 1497 1495 1491 1488 1485 1482 1480 1477 1476 1474 1472 1471 1469 1468 1467 1466 1466 1466 1467 1467 1468
1538 1539 1535 1527 1532 1532 1525 1525 1527 1527 1526 1524 1519 1518 1518 1517 1515 1513 1511 1508 1506 1503 1500 1497 1493 1490 1487 1484 1481 1478 1475 1473 1471 1469 1467 1466 1464 1463 1462 1462 1462 1462 1462 1463
1539 1538 1535 1529 1531 1527 1523 1527 1527 1526 1525 1524 1522 1520 1519 1517 1515 1512 1510 1508 1505 1502 1498 1495 1492 1488 1485 1482 1479 1476 1472 1470 1468 1466 1464 1462 1460 1459 1457 1457 1456 1457 1457 1458
1538 1536 1533 1529 1524 1518 1523 1526 1527 1526 1522 1522 1521 1519 1518 1515 1512 1510 1509 1507 1504 1501 1497 1493 1490 1486 1483 1480 1476 1473 1470 1467 1465 1462 1460 1458 1456 1454 1453 1452 1452 1452 1452 1453
1538 1537 1534 1531 1524 1518 1518 1525 1526 1527 1519 1520 1520 1518 1517 1515 1510 1508 1507 1505 1501 1498 1494 1490 1487 1484 1480 1477 1474 1470 1467 1464 1462 1459 1456 1455 1453 1451 1449 1448 1447 1447 1448 1448
1537 1537 1535 1530 1525 1518 1523 1525 1526 1523 1516 1519 1518 1517 1516 1514 1513 1510 1505 1502 1499 1496 1492 1488 1484 1481 1477 1474 1471 1467 1464 1461 1458 1455 1453 1450 1448 1446 1444 1443 1443 1443 1443 1444
1532 1531 1532 1530 1526 1521 1524 1524 1523 1519 1518 1517 1516 1515 1514 1512 1509 1507 1503 1500 1496 1493 1489 1485 1482 1478 1474 1471 1468 1464 1461 1458 1454 1451 1448 1446 1443 1441 1440 1439 1438 1439 1439 1439
1531 1529 1525 1525 1522 1521 1521 1520 1519 1518 1517 1515 1514 1513 1511 1509 1506 1504 1501 1497 1494 1491 1487 1483 1479 1475 1472 1468 1465 1461 1457 1454 1451 1448 1445 1442 1439 1437 1435 1435 1434 1434 1434 1435
1528 1529 1528 1525 1519 1519 1519 1518 1517 1516 1515 1513 1512 1510 1508 1506 1504 1501 1498 1495 1492 1488 1484 1481 1477 1473 1469 1465 1462 1458 1454 1451 1448 1444 1441 1438 1436 1434 1432 1431 1431 1430 1430 1430
1524 1526 1525 1522 1518 1517 1515 1515 1514 1513 1512 1510 1509 1508 1506 1504 1501 1499 1496 1492 1489 1486 1482 1478 1475 1470 1467 1463 1459 1456 1452 1448 1445 1442 1438 1435 1433 1431 1429 1428 1427 1426 1426 1427
1521 1521 1520 1515 1514 1515 1512 1511 1511 1510 1509 1508 1506 1504 1503 1501 1498 1496 1493 1490 1487 1483 1480 1476 1472 1468 1464 1460 1456 1453 1449 1446 1442 1439 1435 1433 1430 1428 1426 1425 1424 1423 1423 1424